SCP
0 0 0 1 1 1 1 1 1 1 1 1 1 1 1 1 0 0 0 0 0 0 0 0 0 0 0 0 0 0 0 0 0 0 0 0 0 0
0 0 0 1 1 1 1 1 1 1 1 1 1 1 1 0 0 0 0 0 0 0 0 0 0 0 0 0 0 0 0 0 0 0 0 0 0 0
0 0 0 0 1 1 1 1 1 1 1 1 0 0 0 0 0 0 0 0 0 0 0 0 0 0 0 0 0 0 0 0 0 0 0 0 0 0
0 0 0 0 0 1 1 1 1 1 1 0 0 0 0 0 0 0 0 0 0 0 0 0 0 0 0 0 0 0 0 0 0 0 0 0 0 0
0 0 0 0 0 0 1 1 1 1 0 0 0 0 0 0 0 0 0 0 0 0 0 0 0 0 0 0 0 0 0 0 0 0 0 0 0 0
0 0 0 0 0 0 0 0 0 0 0 0 0 0 0 0 0 0 0 0 0 0 0 0 0 0 0 0 0 0 0 0 0 0 0 0 0 0
0 0 0 0 0 0 0 0 0 0 0 0 0 0 0 0 0 0 0 0 0 0 0 0 0 0 0 0 0 0 0 0 0 0 0 0 0 0
0 0 0 0 0 0 0 0 0 0 0 0 0 0 0 0 0 0 0 0 0 0 0 0 0 0 0 0 0 0 0 0 0 0 0 0 0 0
0 0 0 0 0 0 0 0 0 0 0 0 0 0 0 0 0 0 0 0 0 0 0 0 0 0 0 0 0 0 0 0 0 0 0 0 0 0
0 0 0 0 0 0 0 0 0 0 0 0 0 0 0 0 0 0 0 0 0 0 0 0 0 0 0 0 0 0 0 0 0 0 0 0 0 0
0 0 0 0 0 0 0 0 0 0 0 0 0 0 0 0 0 0 0 0 0 0 0 0 0 0 0 0 0 0 0 0 0 0 0 0 0 0
0 0 0 0 0 0 0 0 0 0 0 0 0 0 0 0 0 0 0 0 0 0 0 0 0 0 0 0 0 0 0 0 0 0 0 0 0 0
0 0 0 0 0 0 0 0 0 0 0 0 0 0 0 0 0 0 0 0 0 0 0 0 0 0 0 0 0 0 0 0 0 0 0 0 0 0
0 0 0 0 0 0 0 0 0 0 0 0 0 0 0 0 0 0 0 0 0 0 0 0 0 0 0 0 0 0 0 0 0 0 0 0 0 0
0 0 0 0 0 0 0 0 0 0 0 0 0 0 0 0 0 0 0 0 0 0 0 0 0 0 0 0 0 0 0 0 0 0 0 0 0 0
0 0 0 0 -0 -0 0 0 0 0 0 0 0 0 0 0 0 0 0 0 0 0 0 0 0 0 0 0 0 0 0 0 0 0 0 0 0 0
0 0 0 0 0 0 0 0 0 0 0 0 0 0 0 0 0 0 0 0 -0 0 0 0 0 0 0 0 0 0 0 0 0 0 0 0 0 0
0 0 0 0 0 0 0 0 0 0 0 0 0 0 0 0 0 0 0 0 0 0 0 0 0 0 0 0 0 0 0 0 0 0 0 0 0 0
0 0 0 0 0 0 0 0 0 0 0 0 0 0 0 0 0 0 0 0 0 0 0 0 -0 0 0 0 0 0 0 0 0 0 0 0 0 0
0 0 0 0 0 0 0 0 0 0 0 0 0 0 0 0 0 0 0 0 0 0 0 0 0 0 0 0 0 0 0 0 0 0 0 0 0 0
0 0 0 0 0 0 0 0 0 0 0 0 0 0 0 0 0 0 0 0 0 0 0 0 0 0 0 0 0 0 0 0 0 0 0 0 0 0
0 0 0 0 0 0 0 0 0 0 0 0 0 0 0 0 0 0 0 0 0 0 0 0 0 0 0 0 0 0 0 0 0 0 0 0 0 0
0 0 0 0 0 0 0 0 0 0 0 0 0 0 0 0 0 0 0 0 0 0 0 0 0 0 0 0 0 0 0 0 0 0 0 0 0 0
Wind_Speed
11 12 11 10 10 9 9 10 9 8 7 6 4 3 3 3 6 6 8 10 10 10 10 10 10 9 9 9 9 8 8 8 7 7 6 5 4 2
9 10 10 9 8 8 9 9 9 8 5 3 3 4 5 5 6 7 9 12 10 10 10 10 10 10 10 10 9 9 9 8 8 7 7 6 5 4
9 9 10 10 7 7 7 7 7 7 5 3 2 4 5 7 7 7 8 8 8 10 11 11 10 10 10 10 9 9 8 8 7 6 5 5 4 3
8 8 8 6 6 6 5 5 5 6 6 7 4 4 5 7 8 7 7 7 8 12 12 11 10 10 9 10 10 9 8 7 7 6 5 4 3 3
7 7 6 5 4 3 3 3 3 5 6 8 6 4 4 6 8 8 8 6 8 11 12 12 11 10 10 10 9 9 8 7 7 6 6 5 4 4
5 5 5 3 2 1 1 3 4 6 8 8 8 6 5 6 6 7 7 5 6 7 8 9 11 11 11 10 9 8 7 6 5 5 4 4 4 4
3 3 4 3 4 2 3 4 6 6 7 8 8 7 7 6 6 6 8 7 6 5 6 7 8 8 9 10 9 8 6 5 4 4 3 4 4 5
2 2 1 3 6 7 8 8 7 8 9 8 7 8 8 7 6 6 7 7 6 4 4 5 5 5 6 7 8 7 6 5 4 4 4 4 5 6
0 0 2 4 5 7 10 12 12 11 9 7 10 9 8 7 7 7 5 5 6 5 4 6 5 5 7 9 8 6 5 4 4 4 5 6 7 8
2 3 4 5 6 8 10 11 10 10 8 8 9 8 8 6 5 7 8 8 7 4 2 4 5 5 6 7 8 5 4 2 3 3 5 7 8 10
4 4 5 8 8 8 11 12 11 10 13 16 14 13 12 8 3 6 7 7 8 6 2 3 4 4 4 5 8 8 6 3 1 1 3 6 9 11
5 5 6 8 8 6 10 11 12 10 11 12 11 10 10 7 4 3 4 5 7 6 3 1 4 3 4 4 3 3 5 7 6 4 2 2 8 8
7 6 7 10 8 5 6 9 11 10 10 10 9 9 8 6 6 5 4 3 4 6 4 2 2 2 2 3 3 2 2 3 1 2 4 3 2 6
7 7 9 11 8 6 7 11 10 8 8 8 8 7 7 7 7 7 8 9 8 7 5 2 3 1 1 2 3 2 2 3 4 5 4 1 3 4
6 12 14 13 11 8 11 11 8 6 7 7 8 7 7 8 8 7 8 7 7 6 6 3 2 2 2 3 3 3 3 3 4 5 5 5 5 5
9 14 14 10 7 11 10 8 6 6 6 7 8 8 8 7 7 7 7 7 7 8 6 4 4 2 3 3 3 3 4 4 5 6 6 4 4 5
12 11 11 11 10 10 10 8 7 7 7 8 8 8 8 7 6 5 4 5 6 6 7 5 5 3 4 4 3 4 4 4 5 6 6 5 4 5
14 12 11 11 11 11 10 9 8 8 8 8 8 8 7 7 7 6 5 5 5 5 4 3 3 4 5 5 4 5 5 5 5 5 6 6 5 5
12 11 12 11 11 11 10 10 9 9 8 8 8 8 7 7 7 6 5 5 5 4 4 2 1 1 1 2 5 2 5 5 6 6 6 6 6 6
12 11 12 11 11 11 10 10 10 10 8 8 8 8 7 7 6 6 5 5 5 4 4 3 2 3 4 4 2 3 3 5 6 7 7 7 5 3
12 11 11 11 11 10 10 10 10 10 9 8 8 8 7 7 6 6 6 4 2 3 3 4 4 2 3 3 2 1 3 4 0 4 7 8 8 7
12 11 11 11 11 11 10 10 10 10 10 9 9 8 7 7 7 6 6 6 4 3 3 4 5 4 2 2 3 2 2 0 5 6 2 2 6 8
12 11 11 12 11 11 11 11 12 11 10 10 9 9 8 7 6 6 6 5 4 4 3 2 3 2 1 2 3 3 3 4 3 3 3 9 9 10
Wind_Direction
274 269 262 259 252 249 244 237 234 232 226 211 201 194 175 151 149 143 126 115 112 111 110 109 109 107 105 102 97 93 88 88 89 89 87 84 82 104
281 278 272 264 255 247 242 235 230 231 228 191 183 168 156 146 138 133 120 117 107 111 110 108 107 106 105 102 97 93 89 86 87 87 86 82 77 71
288 280 274 270 260 249 240 232 224 215 206 169 145 138 142 138 131 129 132 129 113 108 111 108 106 105 103 100 96 92 89 86 83 82 80 74 65 54
300 293 285 275 261 249 234 223 211 196 182 158 143 133 138 135 127 129 125 120 114 109 109 108 107 106 104 99 94 89 85 80 74 69 64 55 39 20
307 303 295 286 270 252 220 198 185 170 161 147 140 131 133 133 129 121 112 114 118 120 115 110 107 106 104 101 97 91 84 77 69 60 49 37 20 2
319 319 312 299 289 238 161 144 143 141 142 138 135 135 131 134 134 132 125 128 125 124 112 114 115 111 109 106 100 93 86 78 69 58 43 23 2 341
325 345 359 22 30 54 111 128 130 131 133 133 134 133 135 142 142 141 129 128 120 128 136 137 142 138 131 123 103 87 79 69 58 44 23 360 340 326
315 2 54 72 73 75 80 88 107 127 133 132 131 131 131 133 131 140 141 144 134 135 141 129 133 124 115 95 85 84 75 61 46 27 4 344 326 313
226 130 91 100 116 109 94 87 79 80 98 119 124 126 129 132 141 144 140 129 112 132 151 130 133 123 113 98 102 92 79 58 33 13 354 336 322 310
159 129 120 124 114 115 110 100 95 86 93 106 109 110 113 118 125 119 118 119 119 111 142 132 130 130 124 119 125 119 109 73 31 6 353 340 324 307
155 134 132 127 114 115 114 108 102 92 73 75 81 84 77 70 89 141 151 150 135 122 127 132 132 141 140 133 142 163 163 158 141 28 0 347 330 306
150 138 119 123 133 133 128 123 119 117 117 110 104 108 104 93 65 129 153 144 136 123 107 144 134 154 145 125 113 146 168 177 191 181 152 11 342 327
160 155 131 125 133 127 132 127 126 130 129 126 123 121 119 117 110 90 57 82 111 106 117 153 128 152 138 133 115 67 27 22 7 155 160 146 350 340
164 149 129 132 129 125 115 117 129 147 139 134 130 128 125 114 101 90 75 69 67 81 63 45 88 60 122 125 105 74 45 23 6 5 4 157 192 190
143 115 126 135 135 124 121 135 160 161 143 140 134 127 114 109 115 115 110 108 108 98 90 55 74 88 55 68 59 40 17 28 16 1 354 354 360 0
133 120 128 145 145 123 141 167 181 150 147 137 130 127 130 142 146 143 145 149 136 122 109 90 63 44 72 65 44 39 17 12 9 5 346 346 4 7
150 151 157 160 161 158 162 164 155 148 148 139 139 143 145 141 136 133 139 142 133 130 135 141 142 122 74 19 38 25 8 5 12 359 324 337 4 7
162 166 168 170 168 164 162 160 161 157 152 148 149 149 146 143 140 144 149 136 124 116 111 116 144 165 163 113 30 3 2 359 353 346 333 338 349 6
176 172 172 172 168 165 165 165 161 153 156 157 154 152 150 148 147 147 143 136 128 121 114 110 93 335 312 103 120 47 359 351 340 345 349 339 340 355
187 176 174 172 170 169 168 164 157 155 164 162 157 157 157 156 153 152 146 142 138 138 134 120 72 28 13 6 11 114 126 355 350 345 343 332 336 331
189 179 175 173 172 170 167 165 162 162 164 166 161 163 164 163 160 156 136 127 170 152 139 108 85 245 265 270 283 38 99 140 309 330 337 335 339 338
188 179 175 173 173 170 168 170 168 163 165 175 167 170 172 170 166 165 159 167 172 155 139 127 156 206 237 307 321 341 350 181 186 196 237 314 342 340
184 179 174 175 174 170 172 176 175 170 173 177 172 175 178 178 177 175 175 181 173 169 181 174 171 192 248 284 302 323 326 309 303 247 196 187 212 234